Time,TemperatureF,DewpointF,PressureIn,WindDirection,WindDirectionDegrees,WindSpeedMPH,WindSpeedGustMPH,Humidity,HourlyPrecipIn,Conditions,Clouds,dailyrainin,SoftwareType,DateUTC
2013-06-27 00:01:00,62.1,60.3,29.90,South,178,0.0,0.0,94,0.00,,OVC090,0.00,VWS V14.01,2013-06-27 04:01:00,
2013-06-27 00:07:00,62.4,61.0,29.90,South,178,0.0,0.0,95,0.00,,OVC090,0.00,VWS V14.01,2013-06-27 04:07:00,
2013-06-27 00:12:00,62.6,60.8,29.90,South,178,0.0,0.0,94,0.00,,OVC090,0.00,VWS V14.01,2013-06-27 04:12:00,
2013-06-27 00:17:00,63.3,61.9,29.90,South,173,0.0,0.0,95,0.00,,OVC090,0.00,VWS V14.01,2013-06-27 04:17:00,
2013-06-27 00:22:00,63.3,61.9,29.90,South,173,0.0,0.0,95,0.00,,OVC090,0.00,VWS V14.01,2013-06-27 04:22:00,
2013-06-27 00:27:00,64.0,62.6,29.90,South,173,0.0,0.0,95,0.00,,OVC090,0.00,VWS V14.01,2013-06-27 04:27:00,
2013-06-27 00:32:00,64.0,62.6,29.90,South,173,0.0,0.0,95,0.00,,OVC090,0.00,VWS V14.01,2013-06-27 04:32:00,
2013-06-27 00:37:00,64.0,62.6,29.90,South,173,0.0,0.0,95,0.00,,OVC090,0.00,VWS V14.01,2013-06-27 04:37:00,
2013-06-27 00:42:00,64.2,62.8,29.90,South,173,0.0,0.0,95,0.00,,FEW095,0.00,VWS V14.01,2013-06-27 04:42:00,
2013-06-27 00:47:00,64.4,62.9,29.93,South,173,0.0,0.0,95,0.00,,FEW095,0.00,VWS V14.01,2013-06-27 04:47:00,
2013-06-27 00:52:00,64.4,62.9,29.93,South,173,0.0,0.0,95,0.00,,FEW095,0.00,VWS V14.01,2013-06-27 04:52:00,
2013-06-27 00:57:00,64.4,62.9,29.93,South,173,0.0,0.0,95,0.00,,FEW095,0.00,VWS V14.01,2013-06-27 04:57:00,
2013-06-27 01:02:00,64.4,62.9,29.90,South,173,0.0,0.0,95,0.00,,FEW095,0.00,VWS V14.01,2013-06-27 05:02:00,
2013-06-27 01:07:00,64.4,62.9,29.90,South,173,0.0,0.0,95,0.00,,FEW095,0.00,VWS V14.01,2013-06-27 05:07:00,
2013-06-27 01:12:00,64.6,63.1,29.90,South,173,0.0,0.0,95,0.00,,FEW095,0.00,VWS V14.01,2013-06-27 05:12:00,
2013-06-27 01:17:00,64.6,63.1,29.90,South,173,0.0,0.0,95,0.00,,FEW095,0.00,VWS V14.01,2013-06-27 05:17:00,
2013-06-27 01:22:00,64.4,62.9,29.90,South,173,0.0,0.0,95,0.00,,FEW095,0.00,VWS V14.01,2013-06-27 05:22:00,
2013-06-27 01:27:00,64.4,62.9,29.90,South,173,0.0,0.0,95,0.00,,FEW095,0.00,VWS V14.01,2013-06-27 05:27:00,
2013-06-27 01:32:00,64.4,62.9,29.90,South,173,0.0,0.0,95,0.00,,FEW095,0.00,VWS V14.01,2013-06-27 05:32:00,
2013-06-27 01:37:00,64.4,62.9,29.90,South,173,0.0,0.0,95,0.00,,FEW095,0.00,VWS V14.01,2013-06-27 05:37:00,
2013-06-27 01:42:00,64.4,62.9,29.90,South,173,0.0,0.0,95,0.00,,OVC080,0.00,VWS V14.01,2013-06-27 05:42:00,
2013-06-27 01:47:00,64.4,62.9,29.90,South,173,0.0,0.0,95,0.00,,OVC080,0.00,VWS V14.01,2013-06-27 05:47:00,
2013-06-27 01:52:00,64.4,62.9,29.90,South,173,0.0,0.0,95,0.00,,OVC080,0.00,VWS V14.01,2013-06-27 05:52:00,
2013-06-27 01:57:00,64.2,62.8,29.90,South,173,0.0,0.0,95,0.00,,OVC080,0.00,VWS V14.01,2013-06-27 05:57:00,
2013-06-27 02:02:00,64.2,62.8,29.90,South,173,0.0,0.0,95,0.00,,OVC080,0.00,VWS V14.01,2013-06-27 06:02:00,
2013-06-27 02:07:00,63.9,62.4,29.90,South,173,0.0,0.0,95,0.00,,OVC080,0.00,VWS V14.01,2013-06-27 06:07:00,
2013-06-27 02:12:00,63.9,62.4,29.90,South,173,0.0,0.0,95,0.00,,OVC080,0.00,VWS V14.01,2013-06-27 06:12:00,
2013-06-27 02:17:00,63.0,61.5,29.90,South,172,0.0,0.0,95,0.00,,OVC080,0.00,VWS V14.01,2013-06-27 06:17:00,
2013-06-27 02:22:00,63.0,61.5,29.90,South,172,0.0,0.0,95,0.00,,OVC080,0.00,VWS V14.01,2013-06-27 06:22:00,
2013-06-27 02:27:00,63.0,61.5,29.90,South,172,0.0,0.0,95,0.00,,OVC080,0.00,VWS V14.01,2013-06-27 06:27:00,
2013-06-27 02:32:00,62.1,60.6,29.90,South,172,0.0,0.0,95,0.00,,OVC080,0.00,VWS V14.01,2013-06-27 06:32:00,
2013-06-27 02:37:00,62.1,60.6,29.90,South,172,0.0,0.0,95,0.00,,OVC080,0.00,VWS V14.01,2013-06-27 06:37:00,
2013-06-27 02:42:00,61.7,60.3,29.90,South,172,0.0,0.0,95,0.00,,,0.00,VWS V14.01,2013-06-27 06:42:00,
2013-06-27 02:47:00,61.7,60.3,29.90,South,172,0.0,0.0,95,0.00,,,0.00,VWS V14.01,2013-06-27 06:47:00,
2013-06-27 02:52:00,61.3,59.9,29.90,South,172,0.0,0.0,95,0.00,,,0.00,VWS V14.01,2013-06-27 06:52:00,
2013-06-27 02:57:00,61.3,59.9,29.90,South,172,0.0,0.0,95,0.00,,,0.00,VWS V14.01,2013-06-27 06:57:00,
2013-06-27 03:02:00,61.2,59.7,29.90,South,172,0.0,0.0,95,0.00,,,0.00,VWS V14.01,2013-06-27 07:02:00,
2013-06-27 03:07:00,61.2,59.7,29.90,South,172,0.0,0.0,95,0.00,,,0.00,VWS V14.01,2013-06-27 07:07:00,
2013-06-27 03:12:00,61.2,59.7,29.90,South,172,0.0,0.0,95,0.00,,,0.00,VWS V14.01,2013-06-27 07:12:00,
2013-06-27 03:17:00,62.1,60.9,29.90,South,172,0.0,0.0,96,0.00,,,0.00,VWS V14.01,2013-06-27 07:17:00,
2013-06-27 03:22:00,62.2,61.1,29.90,South,172,0.0,0.0,96,0.00,,,0.00,VWS V14.01,2013-06-27 07:22:00,
2013-06-27 03:28:00,62.2,61.1,29.90,South,172,0.0,0.0,96,0.00,,,0.00,VWS V14.01,2013-06-27 07:28:00,
2013-06-27 03:33:00,63.0,61.8,29.90,South,172,0.0,0.0,96,0.00,,,0.00,VWS V14.01,2013-06-27 07:33:00,
2013-06-27 03:38:00,63.0,61.8,29.90,South,172,0.0,0.0,96,0.00,,,0.00,VWS V14.01,2013-06-27 07:38:00,
2013-06-27 03:43:00,63.0,61.8,29.90,South,172,0.0,0.0,96,0.00,,,0.00,VWS V14.01,2013-06-27 07:43:00,
2013-06-27 03:48:00,63.3,62.2,29.90,South,172,0.0,0.0,96,0.00,,,0.00,VWS V14.01,2013-06-27 07:48:00,
2013-06-27 03:53:00,63.3,62.2,29.90,South,172,0.0,0.0,96,0.00,,,0.00,VWS V14.01,2013-06-27 07:53:00,
2013-06-27 03:58:00,63.3,62.2,29.90,South,172,0.0,0.0,96,0.00,,,0.00,VWS V14.01,2013-06-27 07:58:00,
2013-06-27 04:02:00,63.3,62.2,29.90,South,172,0.0,0.0,96,0.00,,,0.00,VWS V14.01,2013-06-27 08:02:00,
2013-06-27 04:07:00,63.3,62.2,29.90,South,172,0.0,0.0,96,0.00,,,0.00,VWS V14.01,2013-06-27 08:07:00,
2013-06-27 04:13:00,63.3,62.2,29.90,South,172,0.0,0.0,96,0.00,,,0.00,VWS V14.01,2013-06-27 08:13:00,
2013-06-27 04:18:00,63.5,62.3,29.90,South,172,0.0,0.0,96,0.00,,,0.00,VWS V14.01,2013-06-27 08:18:00,
2013-06-27 04:23:00,63.5,62.3,29.90,South,172,0.0,0.0,96,0.00,,,0.00,VWS V14.01,2013-06-27 08:23:00,
2013-06-27 04:28:00,63.5,62.3,29.90,South,172,0.0,0.0,96,0.00,,,0.00,VWS V14.01,2013-06-27 08:28:00,
2013-06-27 04:33:00,63.5,62.3,29.90,South,172,0.0,0.0,96,0.00,,,0.00,VWS V14.01,2013-06-27 08:33:00,
2013-06-27 04:38:00,63.5,62.3,29.90,South,172,0.0,0.0,96,0.00,,,0.00,VWS V14.01,2013-06-27 08:38:00,
2013-06-27 04:43:00,63.5,62.3,29.90,South,172,0.0,0.0,96,0.00,,,0.00,VWS V14.01,2013-06-27 08:43:00,
2013-06-27 04:48:00,63.5,62.3,29.90,South,172,0.0,0.0,96,0.00,,,0.00,VWS V14.01,2013-06-27 08:48:00,
2013-06-27 04:53:00,63.5,62.3,29.90,South,172,0.0,0.0,96,0.00,,,0.00,VWS V14.01,2013-06-27 08:53:00,
2013-06-27 04:58:00,63.5,62.3,29.90,South,172,0.0,0.0,96,0.00,,,0.00,VWS V14.01,2013-06-27 08:58:00,
2013-06-27 05:03:00,63.5,62.3,29.90,South,172,0.0,0.0,96,0.00,,,0.00,VWS V14.01,2013-06-27 09:03:00,
2013-06-27 05:08:00,63.5,62.3,29.90,South,172,0.0,0.0,96,0.00,,,0.00,VWS V14.01,2013-06-27 09:08:00,
2013-06-27 05:13:00,63.5,62.3,29.90,South,170,0.0,0.0,96,0.00,,,0.00,VWS V14.01,2013-06-27 09:13:00,
2013-06-27 05:18:00,63.5,62.3,29.90,South,171,0.0,0.0,96,0.00,,,0.00,VWS V14.01,2013-06-27 09:18:00,
2013-06-27 05:23:00,63.5,62.3,29.90,South,171,0.0,0.0,96,0.00,,,0.00,VWS V14.01,2013-06-27 09:23:00,
2013-06-27 05:28:00,61.9,60.4,29.90,South,171,0.0,0.0,95,0.00,,,0.00,VWS V14.01,2013-06-27 09:28:00,
2013-06-27 05:33:00,61.7,60.3,29.90,South,171,0.0,0.0,95,0.00,,,0.00,VWS V14.01,2013-06-27 09:33:00,
2013-06-27 05:38:00,61.0,59.5,29.90,South,171,0.0,0.0,95,0.00,,,0.00,VWS V14.01,2013-06-27 09:38:00,
2013-06-27 05:43:00,61.0,59.5,29.90,South,171,0.0,0.0,95,0.00,,,0.00,VWS V14.01,2013-06-27 09:43:00,
2013-06-27 05:48:00,60.6,59.5,29.90,South,171,0.0,0.0,96,0.00,,,0.00,VWS V14.01,2013-06-27 09:48:00,
2013-06-27 05:53:00,60.6,59.5,29.90,South,171,0.0,0.0,96,0.00,,,0.00,VWS V14.01,2013-06-27 09:53:00,
2013-06-27 05:58:00,60.6,59.5,29.90,South,171,0.0,0.0,96,0.00,,,0.00,VWS V14.01,2013-06-27 09:58:00,
2013-06-27 06:03:00,60.6,59.5,29.90,South,171,0.0,0.0,96,0.00,,,0.00,VWS V14.01,2013-06-27 10:03:00,
2013-06-27 06:08:00,60.6,59.5,29.90,South,171,0.0,0.0,96,0.00,,,0.00,VWS V14.01,2013-06-27 10:08:00,
2013-06-27 06:13:00,60.6,59.5,29.90,South,171,0.0,0.0,96,0.00,,,0.00,VWS V14.01,2013-06-27 10:13:00,
2013-06-27 06:18:00,60.4,59.3,29.90,South,171,0.0,0.0,96,0.00,,,0.00,VWS V14.01,2013-06-27 10:18:00,
2013-06-27 06:23:00,60.4,59.3,29.90,South,171,0.0,0.0,96,0.00,,,0.00,VWS V14.01,2013-06-27 10:23:00,
2013-06-27 06:28:00,60.4,59.3,29.90,South,171,0.0,0.0,96,0.00,,,0.00,VWS V14.01,2013-06-27 10:28:00,
2013-06-27 06:33:00,60.4,59.3,29.90,South,171,0.0,0.0,96,0.00,,,0.00,VWS V14.01,2013-06-27 10:33:00,
2013-06-27 06:38:00,60.4,59.3,29.90,South,171,0.0,0.0,96,0.00,,,0.00,VWS V14.01,2013-06-27 10:38:00,
2013-06-27 06:43:00,60.8,59.7,29.90,South,171,0.0,0.0,96,0.00,,,0.00,VWS V14.01,2013-06-27 10:43:00,
2013-06-27 06:48:00,61.2,60.0,29.90,South,171,0.0,0.0,96,0.00,,,0.00,VWS V14.01,2013-06-27 10:48:00,
2013-06-27 06:53:00,61.3,60.2,29.90,South,171,0.0,0.0,96,0.00,,,0.00,VWS V14.01,2013-06-27 10:53:00,
2013-06-27 06:58:00,61.3,60.2,29.90,South,171,0.0,0.0,96,0.00,,,0.00,VWS V14.01,2013-06-27 10:58:00,
2013-06-27 07:03:00,61.7,60.5,29.90,South,171,0.0,0.0,96,0.00,,,0.00,VWS V14.01,2013-06-27 11:03:00,
2013-06-27 07:08:00,62.1,60.9,29.90,South,171,0.0,0.0,96,0.00,,,0.00,VWS V14.01,2013-06-27 11:08:00,
2013-06-27 07:13:00,62.1,60.9,29.90,South,171,0.0,0.0,96,0.00,,,0.00,VWS V14.01,2013-06-27 11:13:00,
2013-06-27 07:18:00,62.1,60.9,29.90,South,171,0.0,0.0,96,0.00,,,0.00,VWS V14.01,2013-06-27 11:18:00,
2013-06-27 07:23:00,62.1,60.9,29.90,South,171,0.0,0.0,96,0.00,,,0.00,VWS V14.01,2013-06-27 11:23:00,
2013-06-27 07:28:00,66.4,65.2,29.90,South,171,0.0,0.0,96,0.00,,,0.00,VWS V14.01,2013-06-27 11:28:00,
2013-06-27 07:33:00,66.4,65.2,29.90,South,171,0.0,0.0,96,0.00,,,0.00,VWS V14.01,2013-06-27 11:33:00,
2013-06-27 07:38:00,68.2,67.0,29.90,South,171,0.0,0.0,96,0.00,,,0.00,VWS V14.01,2013-06-27 11:38:00,
2013-06-27 07:43:00,68.7,67.5,29.90,South,171,0.0,0.0,96,0.00,,,0.00,VWS V14.01,2013-06-27 11:43:00,
2013-06-27 07:48:00,68.7,67.5,29.90,South,171,0.0,0.0,96,0.00,,,0.00,VWS V14.01,2013-06-27 11:48:00,
2013-06-27 07:53:00,69.4,67.9,29.90,South,171,0.0,0.0,95,0.00,,,0.00,VWS V14.01,2013-06-27 11:53:00,
2013-06-27 07:58:00,70.2,68.4,29.90,South,171,0.0,0.0,94,0.00,,,0.00,VWS V14.01,2013-06-27 11:58:00,
2013-06-27 08:03:00,70.2,68.4,29.90,South,171,0.0,0.0,94,0.00,,,0.00,VWS V14.01,2013-06-27 12:03:00,
2013-06-27 08:08:00,72.5,70.7,29.90,SSE,168,0.0,0.0,94,0.00,,,0.00,VWS V14.01,2013-06-27 12:08:00,
2013-06-27 08:13:00,73.8,71.6,29.90,South,171,0.0,0.0,93,0.00,,,0.00,VWS V14.01,2013-06-27 12:13:00,
2013-06-27 08:18:00,73.9,71.8,29.90,SSE,154,0.0,0.0,93,0.00,,,0.00,VWS V14.01,2013-06-27 12:18:00,
2013-06-27 08:23:00,73.9,71.8,29.90,SW,219,0.0,0.0,93,0.00,,,0.00,VWS V14.01,2013-06-27 12:23:00,
2013-06-27 08:28:00,73.9,71.8,29.90,SW,219,0.0,0.0,93,0.00,,,0.00,VWS V14.01,2013-06-27 12:28:00,
2013-06-27 08:33:00,75.2,72.4,29.90,South,177,0.0,0.0,91,0.00,,,0.00,VWS V14.01,2013-06-27 12:33:00,
2013-06-27 08:38:00,75.2,72.4,29.90,SSE,163,0.0,0.0,91,0.00,,,0.00,VWS V14.01,2013-06-27 12:38:00,
2013-06-27 08:43:00,75.9,72.1,29.90,SSE,160,3.6,3.6,88,0.00,,,0.00,VWS V14.01,2013-06-27 12:43:00,
2013-06-27 08:48:00,75.9,72.1,29.90,SSE,153,2.2,3.6,88,0.00,,,0.00,VWS V14.01,2013-06-27 12:48:00,
2013-06-27 08:53:00,75.9,72.1,29.90,South,173,0.0,2.2,88,0.00,,CLR,0.00,VWS V14.01,2013-06-27 12:53:00,
2013-06-27 08:58:00,75.9,72.1,29.90,South,169,0.0,2.2,88,0.00,,CLR,0.00,VWS V14.01,2013-06-27 12:58:00,
2013-06-27 09:03:00,75.9,72.1,29.90,South,169,0.0,0.0,88,0.00,,CLR,0.00,VWS V14.01,2013-06-27 13:03:00,
2013-06-27 09:08:00,75.9,67.8,29.90,South,172,0.0,0.0,76,0.00,,CLR,0.00,VWS V14.01,2013-06-27 13:08:00,
2013-06-27 09:13:00,75.9,67.8,29.90,South,173,0.0,0.0,76,0.00,,CLR,0.00,VWS V14.01,2013-06-27 13:13:00,
2013-06-27 09:18:00,75.4,65.7,29.90,SSE,165,0.0,0.0,72,0.00,,CLR,0.00,VWS V14.01,2013-06-27 13:18:00,
2013-06-27 09:23:00,75.4,65.7,29.90,SSE,163,0.0,0.0,72,0.00,,CLR,0.00,VWS V14.01,2013-06-27 13:23:00,
2013-06-27 09:28:00,74.8,64.4,29.90,South,178,0.0,0.0,70,0.00,,CLR,0.00,VWS V14.01,2013-06-27 13:28:00,
2013-06-27 09:33:00,74.8,64.4,29.90,SSE,154,4.0,4.0,70,0.00,,CLR,0.00,VWS V14.01,2013-06-27 13:33:00,
2013-06-27 09:38:00,74.5,63.2,29.90,South,178,0.0,4.0,68,0.00,,CLR,0.00,VWS V14.01,2013-06-27 13:38:00,
2013-06-27 09:43:00,74.7,63.4,29.90,South,178,0.0,0.0,68,0.00,,BKN070,0.00,VWS V14.01,2013-06-27 13:43:00,
2013-06-27 09:48:00,74.7,63.4,29.90,South,176,2.7,2.7,68,0.00,,BKN070,0.00,VWS V14.01,2013-06-27 13:48:00,
2013-06-27 09:53:00,75.6,64.3,29.90,South,175,0.0,3.6,68,0.00,,BKN070,0.00,VWS V14.01,2013-06-27 13:53:00,
2013-06-27 09:58:00,76.6,64.9,29.90,SSE,160,3.6,3.6,67,0.00,,BKN070,0.00,VWS V14.01,2013-06-27 13:58:00,
2013-06-27 10:03:00,76.6,64.9,29.90,South,182,0.0,3.6,67,0.00,,BKN070,0.00,VWS V14.01,2013-06-27 14:03:00,
2013-06-27 10:08:00,76.8,63.7,29.90,SSE,159,4.0,4.0,64,0.00,,BKN070,0.00,VWS V14.01,2013-06-27 14:08:00,
2013-06-27 10:13:00,76.8,63.7,29.90,South,171,3.6,4.0,64,0.00,,BKN070,0.00,VWS V14.01,2013-06-27 14:13:00,
2013-06-27 10:18:00,77.9,61.0,29.90,West,276,0.0,4.0,56,0.00,,BKN070,0.00,VWS V14.01,2013-06-27 14:18:00,
2013-06-27 10:23:00,77.9,61.0,29.90,South,170,0.0,0.0,56,0.00,,BKN070,0.00,VWS V14.01,2013-06-27 14:23:00,
2013-06-27 10:28:00,78.3,59.2,29.90,South,170,2.2,2.2,52,0.00,,BKN070,0.00,VWS V14.01,2013-06-27 14:28:00,
2013-06-27 10:33:00,78.4,58.8,29.90,South,170,2.2,3.1,51,0.00,,BKN070,0.00,VWS V14.01,2013-06-27 14:33:00,
2013-06-27 10:38:00,78.4,58.8,29.90,SSE,168,0.0,3.1,51,0.00,,BKN070,0.00,VWS V14.01,2013-06-27 14:38:00,
2013-06-27 10:43:00,79.3,59.1,29.90,SSE,168,0.0,0.0,50,0.00,,BKN070,0.00,VWS V14.01,2013-06-27 14:43:00,
2013-06-27 10:48:00,79.3,59.1,29.90,SSE,168,0.0,0.0,50,0.00,,BKN070,0.00,VWS V14.01,2013-06-27 14:48:00,
2013-06-27 10:54:00,79.9,59.0,29.90,SSE,168,0.0,0.0,49,0.00,,BKN070,0.00,VWS V14.01,2013-06-27 14:54:00,
2013-06-27 10:59:00,79.9,59.0,29.87,NNW,337,4.9,4.9,49,0.00,,BKN070,0.00,VWS V14.01,2013-06-27 14:59:00,
2013-06-27 11:04:00,78.4,55.4,29.87,NNE,16,0.0,4.9,45,0.00,,BKN070,0.00,VWS V14.01,2013-06-27 15:04:00,
2013-06-27 11:09:00,78.1,56.2,29.87,North,353,0.0,4.9,47,0.00,,BKN070,0.00,VWS V14.01,2013-06-27 15:09:00,
2013-06-27 11:14:00,78.8,56.3,29.87,South,171,0.0,3.1,46,0.00,,BKN070,0.00,VWS V14.01,2013-06-27 15:14:00,
2013-06-27 11:19:00,79.2,56.0,29.87,South,171,0.0,3.1,45,0.00,,BKN070,0.00,VWS V14.01,2013-06-27 15:19:00,
2013-06-27 11:24:00,80.4,57.8,29.87,SSE,151,3.1,3.1,46,0.00,,BKN070,0.00,VWS V14.01,2013-06-27 15:24:00,
2013-06-27 11:29:00,80.8,57.5,29.87,SSE,164,2.7,3.1,45,0.00,,BKN070,0.00,VWS V14.01,2013-06-27 15:29:00,
2013-06-27 11:34:00,81.0,56.4,29.87,SSE,164,2.7,2.7,43,0.00,,BKN070,0.00,VWS V14.01,2013-06-27 15:34:00,
2013-06-27 11:39:00,81.0,55.7,29.87,SE,137,0.0,2.7,42,0.00,,BKN070,0.00,VWS V14.01,2013-06-27 15:39:00,
2013-06-27 11:44:00,80.4,55.9,29.87,SSE,153,0.0,0.0,43,0.00,,BKN070,0.00,VWS V14.01,2013-06-27 15:44:00,
2013-06-27 11:49:00,80.4,55.9,29.87,South,187,0.0,0.0,43,0.00,,BKN070,0.00,VWS V14.01,2013-06-27 15:49:00,
2013-06-27 11:54:00,80.8,56.2,29.87,South,187,0.0,0.0,43,0.00,,BKN070,0.00,VWS V14.01,2013-06-27 15:54:00,
2013-06-27 11:59:00,81.1,55.2,29.87,SSE,162,2.7,3.6,41,0.00,,BKN070,0.00,VWS V14.01,2013-06-27 15:59:00,
2013-06-27 12:04:00,81.1,55.2,29.87,South,172,2.7,3.6,41,0.00,,BKN070,0.00,VWS V14.01,2013-06-27 16:04:00,
2013-06-27 12:09:00,81.0,55.1,29.87,ESE,111,0.0,3.6,41,0.00,,BKN070,0.00,VWS V14.01,2013-06-27 16:09:00,
2013-06-27 12:14:00,81.0,55.1,29.87,South,172,0.0,0.0,41,0.00,,BKN070,0.00,VWS V14.01,2013-06-27 16:14:00,
2013-06-27 12:19:00,81.5,56.2,29.87,SSW,192,0.0,3.1,42,0.00,,BKN070,0.00,VWS V14.01,2013-06-27 16:19:00,
2013-06-27 12:24:00,82.0,56.0,29.87,South,172,0.0,0.0,41,0.00,,BKN070,0.00,VWS V14.01,2013-06-27 16:24:00,
2013-06-27 12:29:00,82.6,55.1,29.87,South,172,0.0,0.0,39,0.00,,BKN070,0.00,VWS V14.01,2013-06-27 16:29:00,
2013-06-27 12:34:00,82.6,53.0,29.87,SSE,162,0.0,0.0,36,0.00,,BKN070,0.00,VWS V14.01,2013-06-27 16:34:00,
2013-06-27 12:39:00,82.2,54.1,29.87,SW,215,0.0,0.0,38,0.00,,BKN070,0.00,VWS V14.01,2013-06-27 16:39:00,
2013-06-27 12:44:00,82.2,54.8,29.87,SW,215,0.0,0.0,39,0.00,,SCT095,0.00,VWS V14.01,2013-06-27 16:44:00,
2013-06-27 12:49:00,82.2,54.8,29.87,SW,215,0.0,0.0,39,0.00,,SCT095,0.00,VWS V14.01,2013-06-27 16:49:00,
2013-06-27 12:54:00,81.5,52.7,29.87,SW,215,0.0,0.0,37,0.00,,SCT095,0.00,VWS V14.01,2013-06-27 16:54:00,
2013-06-27 12:59:00,81.3,54.0,29.87,NNE,31,0.0,0.0,39,0.00,,SCT095,0.00,VWS V14.01,2013-06-27 16:59:00,
2013-06-27 13:04:00,81.3,54.7,29.87,South,174,0.0,0.0,40,0.00,,SCT095,0.00,VWS V14.01,2013-06-27 17:04:00,
2013-06-27 13:09:00,81.0,53.0,29.87,South,174,0.0,0.0,38,0.00,,SCT095,0.00,VWS V14.01,2013-06-27 17:09:00,
2013-06-27 13:14:00,80.8,52.1,29.87,South,174,0.0,0.0,37,0.00,,SCT095,0.00,VWS V14.01,2013-06-27 17:14:00,
2013-06-27 13:19:00,81.5,54.9,29.87,South,174,0.0,0.0,40,0.00,,SCT095,0.00,VWS V14.01,2013-06-27 17:19:00,
2013-06-27 13:24:00,81.5,54.9,29.87,South,174,0.0,0.0,40,0.00,,SCT095,0.00,VWS V14.01,2013-06-27 17:24:00,
2013-06-27 13:29:00,81.9,53.8,29.87,South,174,0.0,0.0,38,0.00,,SCT095,0.00,VWS V14.01,2013-06-27 17:29:00,
2013-06-27 13:34:00,81.9,53.8,29.84,SSE,164,3.1,3.1,38,0.00,,SCT095,0.00,VWS V14.01,2013-06-27 17:34:00,
2013-06-27 13:39:00,83.3,52.8,29.84,SSE,164,3.1,3.1,35,0.00,,SCT095,0.00,VWS V14.01,2013-06-27 17:39:00,
2013-06-27 13:44:00,83.5,53.0,29.84,SSE,164,3.1,3.1,35,0.00,,FEW047,0.00,VWS V14.01,2013-06-27 17:44:00,
2013-06-27 13:49:00,83.5,53.0,29.84,SSE,164,3.1,3.1,35,0.00,,FEW047,0.00,VWS V14.01,2013-06-27 17:49:00,
2013-06-27 13:54:00,83.5,53.0,29.84,SSE,164,3.1,3.1,35,0.00,,FEW047,0.00,VWS V14.01,2013-06-27 17:54:00,
2013-06-27 13:59:00,83.7,52.3,29.84,SSE,164,3.1,3.1,34,0.00,,FEW047,0.00,VWS V14.01,2013-06-27 17:59:00,
2013-06-27 14:04:00,83.7,53.1,29.84,East,81,0.0,0.0,35,0.00,,FEW047,0.00,VWS V14.01,2013-06-27 18:04:00,
2013-06-27 14:09:00,84.2,52.8,29.84,East,81,0.0,0.0,34,0.00,,FEW047,0.00,VWS V14.01,2013-06-27 18:09:00,
2013-06-27 14:14:00,84.2,52.8,29.84,East,81,0.0,0.0,34,0.00,,FEW047,0.00,VWS V14.01,2013-06-27 18:14:00,
2013-06-27 14:19:00,84.0,51.8,29.84,South,182,3.1,3.1,33,0.00,,FEW047,0.00,VWS V14.01,2013-06-27 18:19:00,
2013-06-27 14:24:00,84.2,51.2,29.84,South,182,3.1,3.1,32,0.00,,FEW047,0.00,VWS V14.01,2013-06-27 18:24:00,
2013-06-27 14:29:00,84.4,51.3,29.84,South,182,3.1,3.1,32,0.00,,FEW047,0.00,VWS V14.01,2013-06-27 18:29:00,
2013-06-27 14:34:00,84.4,51.3,29.84,South,182,3.1,3.1,32,0.00,,FEW047,0.00,VWS V14.01,2013-06-27 18:34:00,
2013-06-27 14:39:00,84.4,50.5,29.84,SSE,167,0.0,3.1,31,0.00,,FEW047,0.00,VWS V14.01,2013-06-27 18:39:00,
2013-06-27 14:44:00,83.8,50.9,29.84,SSE,167,0.0,0.0,32,0.00,,CLR,0.00,VWS V14.01,2013-06-27 18:44:00,
2013-06-27 14:49:00,83.8,50.9,29.84,SSE,167,0.0,0.0,32,0.00,,CLR,0.00,VWS V14.01,2013-06-27 18:49:00,
2013-06-27 14:54:00,83.5,51.4,29.84,South,173,0.0,0.0,33,0.00,,CLR,0.00,VWS V14.01,2013-06-27 18:54:00,
2013-06-27 14:59:00,83.3,51.2,29.84,South,173,0.0,0.0,33,0.00,,CLR,0.00,VWS V14.01,2013-06-27 18:59:00,
2013-06-27 15:04:00,83.1,51.1,29.84,South,173,0.0,0.0,33,0.00,,CLR,0.00,VWS V14.01,2013-06-27 19:04:00,
2013-06-27 15:09:00,82.6,49.8,29.84,South,173,0.0,0.0,32,0.00,,CLR,0.00,VWS V14.01,2013-06-27 19:09:00,
2013-06-27 15:14:00,82.2,50.3,29.84,South,173,0.0,0.0,33,0.00,,CLR,0.00,VWS V14.01,2013-06-27 19:14:00,
2013-06-27 15:19:00,82.2,50.3,29.84,South,173,0.0,0.0,33,0.00,,CLR,0.00,VWS V14.01,2013-06-27 19:19:00,
2013-06-27 15:24:00,82.2,50.3,29.84,South,173,0.0,0.0,33,0.00,,CLR,0.00,VWS V14.01,2013-06-27 19:24:00,
2013-06-27 15:29:00,82.0,53.2,29.84,South,173,0.0,0.0,37,0.00,,CLR,0.00,VWS V14.01,2013-06-27 19:29:00,
2013-06-27 15:34:00,82.0,52.5,29.84,South,173,0.0,0.0,36,0.00,,CLR,0.00,VWS V14.01,2013-06-27 19:34:00,
2013-06-27 15:39:00,82.0,53.2,29.84,South,173,0.0,0.0,37,0.00,,CLR,0.00,VWS V14.01,2013-06-27 19:39:00,
2013-06-27 15:44:00,81.9,52.3,29.84,South,173,0.0,0.0,36,0.00,,CLR,0.00,VWS V14.01,2013-06-27 19:44:00,
2013-06-27 15:49:00,81.7,52.9,29.84,South,173,0.0,0.0,37,0.00,,CLR,0.00,VWS V14.01,2013-06-27 19:49:00,
2013-06-27 15:54:00,81.0,53.0,29.84,South,173,0.0,0.0,38,0.00,,CLR,0.00,VWS V14.01,2013-06-27 19:54:00,
2013-06-27 15:59:00,80.2,53.8,29.84,South,173,0.0,0.0,40,0.00,,CLR,0.00,VWS V14.01,2013-06-27 19:59:00,
2013-06-27 16:04:00,79.7,53.9,29.84,South,173,0.0,0.0,41,0.00,,CLR,0.00,VWS V14.01,2013-06-27 20:04:00,
2013-06-27 16:09:00,79.5,54.4,29.84,South,173,0.0,0.0,42,0.00,,CLR,0.00,VWS V14.01,2013-06-27 20:09:00,
2013-06-27 16:14:00,79.5,54.4,29.84,South,173,0.0,0.0,42,0.00,,CLR,0.00,VWS V14.01,2013-06-27 20:14:00,
2013-06-27 16:19:00,79.5,54.4,29.84,South,173,0.0,0.0,42,0.00,,CLR,0.00,VWS V14.01,2013-06-27 20:19:00,
2013-06-27 16:24:00,79.5,54.4,29.84,South,173,0.0,0.0,42,0.00,,CLR,0.00,VWS V14.01,2013-06-27 20:24:00,
2013-06-27 16:29:00,77.9,56.7,29.81,South,170,0.0,0.0,48,0.00,,CLR,0.00,VWS V14.01,2013-06-27 20:29:00,
2013-06-27 16:35:00,77.9,56.7,29.81,South,170,0.0,0.0,48,0.00,,CLR,0.00,VWS V14.01,2013-06-27 20:35:00,
2013-06-27 16:40:00,77.9,56.7,29.81,South,170,0.0,0.0,48,0.00,,CLR,0.00,VWS V14.01,2013-06-27 20:40:00,
2013-06-27 16:46:00,77.0,60.1,29.81,South,170,0.0,0.0,56,0.00,,CLR,0.00,VWS V14.01,2013-06-27 20:46:00,
2013-06-27 16:51:00,77.0,60.1,29.81,South,170,0.0,0.0,56,0.00,,CLR,0.00,VWS V14.01,2013-06-27 20:51:00,
2013-06-27 16:56:00,76.8,60.5,29.81,South,170,0.0,0.0,57,0.00,,CLR,0.00,VWS V14.01,2013-06-27 20:56:00,
2013-06-27 17:01:00,76.8,60.5,29.81,South,170,0.0,0.0,57,0.00,,CLR,0.00,VWS V14.01,2013-06-27 21:01:00,
2013-06-27 17:06:00,76.8,60.5,29.81,South,170,0.0,0.0,57,0.00,,CLR,0.00,VWS V14.01,2013-06-27 21:06:00,
2013-06-27 17:11:00,76.1,61.7,29.81,South,170,0.0,0.0,61,0.00,,CLR,0.00,VWS V14.01,2013-06-27 21:11:00,
2013-06-27 17:16:00,76.1,61.7,29.81,South,170,0.0,0.0,61,0.00,,CLR,0.00,VWS V14.01,2013-06-27 21:16:00,
2013-06-27 17:21:00,76.3,62.3,29.81,South,170,0.0,0.0,62,0.00,,CLR,0.00,VWS V14.01,2013-06-27 21:21:00,
2013-06-27 17:26:00,75.9,62.4,29.81,South,170,0.0,0.0,63,0.00,,CLR,0.00,VWS V14.01,2013-06-27 21:26:00,
2013-06-27 17:31:00,75.7,62.7,29.81,South,170,0.0,0.0,64,0.00,,CLR,0.00,VWS V14.01,2013-06-27 21:31:00,
2013-06-27 17:37:00,75.4,62.4,29.81,South,170,0.0,0.0,64,0.00,,CLR,0.00,VWS V14.01,2013-06-27 21:37:00,
2013-06-27 17:42:00,75.4,62.4,29.81,South,170,0.0,0.0,64,0.00,,BKN060,0.00,VWS V14.01,2013-06-27 21:42:00,
2013-06-27 17:47:00,75.0,62.5,29.81,South,170,0.0,0.0,65,0.00,,BKN060,0.00,VWS V14.01,2013-06-27 21:47:00,
2013-06-27 17:52:00,73.8,61.3,29.81,South,170,0.0,0.0,65,0.04,,BKN060,0.04,VWS V14.01,2013-06-27 21:52:00,
2013-06-27 17:57:00,73.0,61.0,29.81,South,170,0.0,0.0,66,0.04,,BKN060,0.04,VWS V14.01,2013-06-27 21:57:00,
2013-06-27 18:02:00,71.8,62.7,29.81,South,174,0.0,0.0,73,0.08,,BKN060,0.08,VWS V14.01,2013-06-27 22:02:00,
2013-06-27 18:07:00,70.9,63.3,29.81,South,174,0.0,0.0,77,0.08,,BKN060,0.08,VWS V14.01,2013-06-27 22:07:00,
2013-06-27 18:13:00,70.3,63.2,29.81,South,174,0.0,0.0,78,0.08,,BKN060,0.08,VWS V14.01,2013-06-27 22:13:00,
2013-06-27 18:18:00,70.0,63.2,29.81,South,174,0.0,0.0,79,0.08,,BKN060,0.08,VWS V14.01,2013-06-27 22:18:00,
2013-06-27 18:23:00,70.0,63.2,29.81,South,174,0.0,0.0,79,0.08,,BKN060,0.08,VWS V14.01,2013-06-27 22:23:00,
2013-06-27 18:28:00,69.4,62.7,29.81,South,174,0.0,0.0,79,0.08,,BKN060,0.08,VWS V14.01,2013-06-27 22:28:00,
2013-06-27 18:33:00,69.4,62.7,29.81,South,174,0.0,0.0,79,0.08,,BKN060,0.08,VWS V14.01,2013-06-27 22:33:00,
2013-06-27 18:38:00,68.9,62.5,29.81,South,174,0.0,0.0,80,0.08,,BKN060,0.08,VWS V14.01,2013-06-27 22:38:00,
2013-06-27 18:43:00,68.5,63.9,29.81,South,174,0.0,0.0,85,0.12,,BKN090,0.12,VWS V14.01,2013-06-27 22:43:00,
2013-06-27 18:48:00,68.5,64.2,29.81,South,174,0.0,0.0,86,0.12,,BKN090,0.12,VWS V14.01,2013-06-27 22:48:00,
2013-06-27 18:53:00,68.2,63.8,29.81,South,174,0.0,0.0,86,0.12,,BKN090,0.12,VWS V14.01,2013-06-27 22:53:00,
2013-06-27 18:58:00,68.2,64.2,29.81,South,174,0.0,0.0,87,0.12,,BKN090,0.12,VWS V14.01,2013-06-27 22:58:00,
2013-06-27 19:03:00,68.0,64.0,29.81,SSE,164,0.0,0.0,87,0.12,,BKN090,0.16,VWS V14.01,2013-06-27 23:03:00,
2013-06-27 19:08:00,67.8,64.1,29.81,SSE,164,0.0,0.0,88,0.12,,BKN090,0.16,VWS V14.01,2013-06-27 23:08:00,
2013-06-27 19:14:00,67.6,64.0,29.81,SSE,164,0.0,0.0,88,0.08,,BKN090,0.16,VWS V14.01,2013-06-27 23:14:00,
2013-06-27 19:19:00,67.6,64.0,29.81,SSE,164,0.0,0.0,88,0.08,,BKN090,0.16,VWS V14.01,2013-06-27 23:19:00,
2013-06-27 19:24:00,67.6,64.0,29.81,SSE,160,0.0,0.0,88,0.08,,BKN090,0.16,VWS V14.01,2013-06-27 23:24:00,
2013-06-27 19:29:00,67.6,64.0,29.81,NNW,332,0.0,0.0,88,0.08,,BKN090,0.16,VWS V14.01,2013-06-27 23:29:00,
2013-06-27 19:34:00,67.6,64.0,29.81,NNW,332,0.0,0.0,88,0.08,,BKN090,0.16,VWS V14.01,2013-06-27 23:34:00,
2013-06-27 19:39:00,67.6,64.0,29.81,NNW,332,0.0,0.0,88,0.08,,BKN090,0.16,VWS V14.01,2013-06-27 23:39:00,
2013-06-27 19:44:00,67.6,64.0,29.81,NNW,332,0.0,0.0,88,0.04,,OVC055,0.16,VWS V14.01,2013-06-27 23:44:00,
2013-06-27 19:50:00,67.6,64.0,29.81,NNW,332,0.0,0.0,88,0.04,,OVC055,0.16,VWS V14.01,2013-06-27 23:50:00,
2013-06-27 19:55:00,67.6,64.0,29.81,NNW,332,0.0,0.0,88,0.04,,OVC055,0.16,VWS V14.01,2013-06-27 23:55:00,
2013-06-27 20:00:00,67.6,64.0,29.81,NNW,332,0.0,0.0,88,0.04,,OVC055,0.16,VWS V14.01,2013-06-28 00:00:00,
2013-06-27 20:05:00,67.6,64.0,29.81,NNW,332,0.0,0.0,88,0.04,,OVC055,0.16,VWS V14.01,2013-06-28 00:05:00,
2013-06-27 20:10:00,67.6,64.0,29.81,NNW,332,0.0,0.0,88,0.00,,OVC055,0.16,VWS V14.01,2013-06-28 00:10:00,
2013-06-27 20:15:00,67.6,64.0,29.81,NNW,332,0.0,0.0,88,0.00,,OVC065,0.16,VWS V14.01,2013-06-28 00:15:00,
2013-06-27 20:20:00,67.6,64.0,29.81,NNW,332,0.0,0.0,88,0.00,,OVC065,0.16,VWS V14.01,2013-06-28 00:20:00,
2013-06-27 20:25:00,67.6,64.0,29.81,NNW,332,0.0,0.0,88,0.00,,OVC065,0.16,VWS V14.01,2013-06-28 00:25:00,
2013-06-27 20:30:00,67.6,64.0,29.81,NNW,332,0.0,0.0,88,0.00,,OVC065,0.16,VWS V14.01,2013-06-28 00:30:00,
2013-06-27 20:36:00,67.6,64.0,29.81,NNW,332,0.0,0.0,88,0.00,,OVC065,0.16,VWS V14.01,2013-06-28 00:36:00,
2013-06-27 20:41:00,67.6,64.0,29.81,NNW,332,0.0,0.0,88,0.00,,OVC065,0.16,VWS V14.01,2013-06-28 00:41:00,
2013-06-27 20:46:00,67.6,64.0,29.81,NNW,332,0.0,0.0,88,0.00,,OVC065,0.16,VWS V14.01,2013-06-28 00:46:00,
2013-06-27 20:51:00,67.6,64.0,29.81,NNW,332,0.0,0.0,88,0.00,,OVC065,0.16,VWS V14.01,2013-06-28 00:51:00,
2013-06-27 20:56:00,67.6,64.0,29.81,NNW,332,0.0,0.0,88,0.00,,OVC065,0.16,VWS V14.01,2013-06-28 00:56:00,
2013-06-27 21:01:00,67.6,64.0,29.81,NNW,332,0.0,0.0,88,0.00,,OVC065,0.16,VWS V14.01,2013-06-28 01:01:00,
2013-06-27 21:06:00,67.6,64.0,29.81,NNW,332,0.0,0.0,88,0.00,,OVC065,0.16,VWS V14.01,2013-06-28 01:06:00,
2013-06-27 21:11:00,67.6,64.0,29.81,NNW,332,0.0,0.0,88,0.00,,OVC065,0.16,VWS V14.01,2013-06-28 01:11:00,
2013-06-27 21:16:00,67.6,64.0,29.81,NNW,332,0.0,0.0,88,0.00,,OVC065,0.16,VWS V14.01,2013-06-28 01:16:00,
2013-06-27 21:21:00,67.6,64.0,29.81,NNW,332,0.0,0.0,88,0.00,,OVC065,0.16,VWS V14.01,2013-06-28 01:21:00,
2013-06-27 21:26:00,67.6,64.0,29.81,NNW,332,0.0,0.0,88,0.00,,OVC065,0.16,VWS V14.01,2013-06-28 01:26:00,
2013-06-27 21:31:00,67.6,64.0,29.81,NNW,332,0.0,0.0,88,0.00,,OVC065,0.16,VWS V14.01,2013-06-28 01:31:00,
2013-06-27 21:36:00,67.6,64.0,29.81,NNW,332,0.0,0.0,88,0.00,,OVC065,0.16,VWS V14.01,2013-06-28 01:36:00,
2013-06-27 21:42:00,67.6,64.0,29.81,NNW,332,0.0,0.0,88,0.00,,-RA,0.16,VWS V14.01,2013-06-28 01:42:00,
2013-06-27 21:47:00,67.6,64.0,29.81,NNW,332,0.0,0.0,88,0.00,,-RA,0.16,VWS V14.01,2013-06-28 01:47:00,
2013-06-27 21:52:00,67.6,64.0,29.81,NNW,332,0.0,0.0,88,0.00,,-RA,0.16,VWS V14.01,2013-06-28 01:52:00,
2013-06-27 21:57:00,67.6,64.0,29.81,NNW,332,0.0,0.0,88,0.00,,-RA,0.16,VWS V14.01,2013-06-28 01:57:00,
2013-06-27 22:02:00,67.6,64.0,29.81,NNW,332,0.0,0.0,88,0.00,,-RA,0.16,VWS V14.01,2013-06-28 02:02:00,
2013-06-27 22:08:00,67.6,64.0,29.81,NNW,332,0.0,0.0,88,0.00,,-RA,0.16,VWS V14.01,2013-06-28 02:08:00,
2013-06-27 22:13:00,67.6,64.0,29.81,NNW,332,0.0,0.0,88,0.00,,-RA,0.16,VWS V14.01,2013-06-28 02:13:00,
2013-06-27 22:18:00,66.4,64.6,29.81,NNW,332,0.0,0.0,94,0.00,,-RA,0.16,VWS V14.01,2013-06-28 02:18:00,
2013-06-27 22:23:00,66.4,64.6,29.81,NNW,332,0.0,0.0,94,0.00,,-RA,0.16,VWS V14.01,2013-06-28 02:23:00,
2013-06-27 22:28:00,66.4,64.6,29.81,NNW,332,0.0,0.0,94,0.00,,-RA,0.16,VWS V14.01,2013-06-28 02:28:00,
2013-06-27 22:33:00,66.4,64.6,29.81,NNW,332,0.0,0.0,94,0.00,,-RA,0.16,VWS V14.01,2013-06-28 02:33:00,
2013-06-27 22:38:00,66.4,64.6,29.81,NNW,332,0.0,0.0,94,0.00,,-RA,0.16,VWS V14.01,2013-06-28 02:38:00,
2013-06-27 22:43:00,66.4,64.6,29.78,NNW,332,0.0,0.0,94,0.00,,-RA,0.16,VWS V14.01,2013-06-28 02:43:00,
2013-06-27 22:48:00,66.4,64.6,29.78,NNW,332,0.0,0.0,94,0.00,,-RA,0.16,VWS V14.01,2013-06-28 02:48:00,
2013-06-27 22:53:00,66.4,64.6,29.78,NNW,332,0.0,0.0,94,0.00,,-RA,0.16,VWS V14.01,2013-06-28 02:53:00,
2013-06-27 22:59:00,66.2,64.4,29.81,NNW,332,0.0,0.0,94,0.00,,-RA,0.16,VWS V14.01,2013-06-28 02:59:00,
2013-06-27 23:04:00,66.2,64.4,29.81,NNW,332,0.0,0.0,94,0.00,,-RA,0.16,VWS V14.01,2013-06-28 03:04:00,
2013-06-27 23:09:00,66.2,64.4,29.81,North,353,0.0,0.0,94,0.00,,-RA,0.16,VWS V14.01,2013-06-28 03:09:00,
2013-06-27 23:14:00,66.2,64.7,29.78,North,353,0.0,0.0,95,0.00,,-RA,0.16,VWS V14.01,2013-06-28 03:14:00,
2013-06-27 23:19:00,66.2,64.7,29.78,North,353,0.0,0.0,95,0.00,,-RA,0.16,VWS V14.01,2013-06-28 03:19:00,
2013-06-27 23:24:00,66.0,64.6,29.78,North,353,0.0,0.0,95,0.08,,-RA,0.24,VWS V14.01,2013-06-28 03:24:00,
2013-06-27 23:29:00,65.7,64.2,29.78,North,353,0.0,0.0,95,0.08,,-RA,0.24,VWS V14.01,2013-06-28 03:29:00,
2013-06-27 23:34:00,65.3,63.8,29.78,NNE,28,2.7,2.7,95,0.16,,BKN110,0.31,VWS V14.01,2013-06-28 03:34:00,
2013-06-27 23:39:00,65.1,63.7,29.78,NNE,14,0.0,2.7,95,0.20,,BKN110,0.35,VWS V14.01,2013-06-28 03:39:00,
2013-06-27 23:44:00,64.9,63.5,29.81,North,353,5.4,5.4,95,0.20,,BKN110,0.35,VWS V14.01,2013-06-28 03:44:00,
2013-06-27 23:49:00,64.9,63.5,29.81,North,353,0.0,5.4,95,0.20,,BKN110,0.35,VWS V14.01,2013-06-28 03:49:00,
2013-06-27 23:54:00,64.8,63.3,29.78,NNW,345,0.0,2.2,95,0.43,,BKN110,0.59,VWS V14.01,2013-06-28 03:54:00,